AA3JL Weather Reports


time (UTC)temp
C
wind
direction
speed
KPH
gust
KPH
rain 1hr
cm
rain 24hr
cm
rain mn
cm
humidity
%
barometer
mb
20260507184538 16 234 12.9 32.2 0.00 0.00 0.00 45 1010.3
20260507183046 17 278 12.9 25.7 0.00 0.00 0.00 43 1010.3
20260507181542 17 242 9.7 19.3 0.00 0.00 0.00 43 1010.4
20260507180052 16 211 8.0 22.5 0.00 0.00 0.00 47 1010.5
20260507174538 16 240 12.9 20.9 0.00 0.00 0.00 44 1010.8
20260507173045 16 315 12.9 24.1 0.00 0.00 0.00 42 1011.0
20260507171548 16 253 12.9 20.9 0.00 0.00 0.00 48 1011.2
20260507170037 16 250 9.7 22.5 0.00 0.00 0.00 49 1011.3
20260507164544 16 263 11.3 20.9 0.00 0.00 0.00 48 1011.4
20260507163048 15 231 6.4 17.7 0.00 0.00 0.00 49 1011.7
20260507161543 15 299 4.8 12.9 0.00 0.00 0.00 46 1011.8
20260507160047 15 317 8.0 19.3 0.00 0.00 0.00 46 1012.0
20260507154538 15 205 3.2 16.1 0.00 0.00 0.00 46 1012.1
20260507153043 14 249 9.7 22.5 0.00 0.00 0.00 52 1012.3
20260507151535 13 260 8.0 16.1 0.00 0.00 0.00 50 1012.4
20260507150043 13 255 3.2 16.1 0.00 0.00 0.00 53 1012.6
20260507144539 13 219 4.8 19.3 0.00 0.03 0.00 50 1012.9
20260507143042 13 221 6.4 14.5 0.00 0.03 0.00 54 1013.0
20260507141542 13 253 3.2 17.7 0.00 0.03 0.00 54 1013.2
20260507140038 13 248 6.4 16.1 0.00 0.03 0.00 57 1013.4
20260507134542 12 236 1.6 16.1 0.00 0.03 0.00 56 1013.6
20260507133040 12 224 4.8 12.9 0.00 0.03 0.00 62 1013.6
20260507131539 12 175 4.8 12.9 0.00 0.03 0.00 61 1013.6
20260507130050 11 241 4.8 11.3 0.00 0.03 0.00 66 1013.6
20260507124549 11 227 3.2 8.0 0.00 0.10 0.00 70 1013.7
20260507123037 10 0 1.6 6.4 0.00 0.10 0.00 75 1013.8
20260507121540 8 213 3.2 8.0 0.00 0.10 0.00 82 1013.8
20260507120040 7 205 1.6 4.8 0.00 0.10 0.00 86 1013.6
20260507114556 6 281 1.6 3.2 0.00 0.15 0.00 89 1013.6
20260507113038 5 0 1.6 3.2 0.00 0.15 0.00 94 1013.5
20260507111534 3 0 0.0 3.2 0.00 0.15 0.00 93 1013.4
20260507110046 3 0 0.0 0.0 0.00 0.15 0.00 92 1013.2
20260507104549 3 0 0.0 1.6 0.00 0.38 0.00 92 1013.0
20260507103040 3 0 0.0 1.6 0.00 0.38 0.00 91 1013.1
20260507101538 3 0 0.0 0.0 0.00 0.38 0.00 90 1013.0
20260507100042 3 0 0.0 0.0 0.00 0.38 0.00 90 1013.0
20260507094534 4 0 0.0 1.6 0.00 0.53 0.00 90 1012.8
20260507093044 4 0 0.0 1.6 0.00 0.53 0.00 88 1012.9
20260507091557 5 0 0.0 0.0 0.00 0.53 0.00 87 1013.0
20260507090039 5 0 0.0 0.0 0.00 0.53 0.00 86 1013.0
20260507084540 6 0 0.0 0.0 0.00 0.58 0.00 85 1013.0
20260507083036 6 0 0.0 0.0 0.00 0.58 0.00 84 1013.0
20260507081536 7 0 0.0 0.0 0.00 0.58 0.00 82 1012.7
20260507080049 7 0 0.0 1.6 0.00 0.58 0.00 80 1012.7
20260507074546 8 0 0.0 3.2 0.00 0.64 0.00 78 1012.7
20260507073039 8 0 0.0 1.6 0.00 0.64 0.00 77 1012.7
20260507071537 8 360 0.0 4.8 0.00 0.64 0.00 75 1012.7
20260507070054 8 360 0.0 0.0 0.00 0.64 0.00 77 1012.7
20260507064540 8 0 0.0 4.8 0.00 0.74 0.00 74 1012.7
20260507063052 8 360 0.0 6.4 0.00 0.74 0.00 76 1012.7
20260507061546 8 0 0.0 3.2 0.00 0.74 0.00 79 1013.0
20260507060042 8 0 0.0 3.2 0.00 0.74 0.00 78 1013.1
20260507054541 8 0 0.0 0.0 0.00 0.81 0.00 76 1013.4
20260507053040 9 0 0.0 0.0 0.00 0.81 0.00 75 1013.5
20260507051540 9 0 0.0 1.6 0.00 0.81 0.00 71 1013.3
20260507050039 9 0 0.0 4.8 0.00 0.81 0.00 73 1013.5
20260507044542 9 352 0.0 3.2 0.00 0.84 0.00 72 1013.5
20260507043038 9 0 1.6 4.8 0.00 0.84 0.00 73 1013.4
20260507041544 9 0 0.0 1.6 0.00 0.84 0.00 73 1013.5
20260507040041 10 327 0.0 4.8 0.00 0.84 0.00 73 1013.5
20260507034540 10 327 0.0 3.2 0.00 0.84 0.84 76 1013.5
20260507033039 10 0 0.0 1.6 0.00 0.84 0.84 72 1013.5
20260507031537 10 0 0.0 1.6 0.00 0.84 0.84 73 1013.1
20260507030036 10 327 0.0 1.6 0.00 0.84 0.84 71 1012.9
20260507024537 10 0 0.0 3.2 0.00 0.84 0.84 70 1012.9
20260507023035 10 327 1.6 6.4 0.00 0.84 0.84 69 1013.1
20260507021539 10 333 1.6 8.0 0.00 0.84 0.84 70 1012.8
20260507020043 11 348 6.4 14.5 0.00 0.84 0.84 69 1012.4
20260507014543 11 9 8.0 17.7 0.00 0.84 0.84 70 1012.1
20260507013047 11 352 8.0 17.7 0.00 0.84 0.84 77 1011.9
20260507011536 11 348 1.6 11.3 0.00 0.84 0.84 80 1012.0
20260507010046 11 360 1.6 4.8 0.00 0.84 0.84 79 1012.2
20260507004539 11 352 1.6 6.4 0.00 0.84 0.84 80 1012.4
20260507003039 11 300 1.6 8.0 0.00 0.84 0.84 80 1012.7
20260507001547 11 269 1.6 8.0 0.00 0.84 0.84 81 1012.8
20260507000041 12 269 0.0 3.2 0.00 0.84 0.84 80 1012.0
20260506234542 12 0 0.0 3.2 0.00 0.84 0.84 79 1012.1
20260506233054 12 310 1.6 8.0 0.00 0.84 0.84 78 1011.9
20260506231541 12 340 1.6 6.4 0.00 0.84 0.84 78 1011.7
20260506230037 12 339 1.6 9.7 0.00 0.84 0.84 79 1011.5
20260506224536 12 313 3.2 9.7 0.00 0.84 0.84 78 1011.4
20260506223040 12 317 1.6 9.7 0.00 0.84 0.84 79 1011.3
20260506221540 12 303 3.2 8.0 0.00 0.84 0.84 79 1011.4
20260506220041 12 0 1.6 9.7 0.00 0.84 0.84 79 1011.4
20260506214535 12 288 3.2 12.9 0.00 0.84 0.84 79 1011.3
20260506213037 12 5 3.2 16.1 0.00 0.84 0.84 80 1011.0
20260506211536 12 323 6.4 19.3 0.00 0.84 0.84 80 1010.8
20260506210041 12 256 8.0 19.3 0.00 0.84 0.84 80 1010.6
20260506204539 12 312 8.0 17.7 0.00 0.86 0.84 80 1010.3
20260506203035 12 311 4.8 20.9 0.00 0.86 0.84 81 1010.2
20260506201537 12 329 9.7 19.3 0.00 0.86 0.84 80 1010.1
20260506200041 13 315 9.7 17.7 0.00 0.86 0.84 81 1009.9
20260506194546 12 290 4.8 14.5 0.00 0.86 0.84 85 1010.2
20260506193038 12 246 4.8 14.5 0.00 0.86 0.84 87 1009.9
20260506191539 12 256 4.8 16.1 0.00 0.86 0.84 87 1010.0
20260506190034 12 230 3.2 12.9 0.00 0.86 0.84 88 1010.2